Weather History for Angleton, TX

Change the Weather History Date:

Saturday, July 27, 2013

  Actual Average Record
Temperature  
Mean Temperature 85 °F -  
Max Temperature 93 °F 89 °F 97 °F (2011)
Min Temperature 79 °F 72 °F 66 °F (2000)
Cooling Degree Days 20    
Growing Degree Days 35 (Base 50)    
Moisture  
Dew Point 75 °F    
Average Humidity 77    
Maximum Humidity 90    
Minimum Humidity 54    
Precipitation  
Precipitation 0.00 in - - ()
Sea Level Pressure  
Sea Level Pressure 29.92 in    
Wind  
Wind Speed 7 mph (SW)    
Max Wind Speed 13 mph    
Max Gust Speed 23 mph    
Visibility 10 miles    
Events      
Averages and records for this station are not official NWS values.
T = Trace of Precipitation, MM = Missing Value Source: NWS Daily Summary

Daily Weather History Graph

Daily Weather History Graph

Search for Another Location

Airport:

Trip Planner

Search our weather history database for the weather conditions in past years. The results will help you decide how hot, cold, wet, or windy it might be!

Date:

Astronomy

Jul. 27, 2013 Rise Set
Actual Time 6:39 AM CDT 8:16 PM CDT
Civil Twilight 6:13 AM CDT 8:42 PM CDT
Nautical Twilight 5:42 AM CDT 9:13 PM CDT
Astronomical Twilight 5:10 AM CDT 9:46 PM CDT
Moon 11:38 PM CDT (7/27) 11:49 AM CDT (7/27)
Length of Visible Light 14h 28m
Length of Day
13h 36m
Waning Gibbous, 70% of the Moon is Illuminated
Jul 27
Waning Gibbous
Jul 29
Last Quarter
Aug 6
New
Aug 14
First Quarter
Aug 20
Full

Hourly Weather History & Observations

Time (CDT) Temp. Heat Index Dew Point Humidity Pressure Visibility Wind Dir Wind Speed Gust Speed Precip Events Conditions
12:53 AM 81.0 °F 86.7 °F 75.0 °F 82% 29.94 in 10.0 mi SSW 11.5 mph - N/A   Clear
1:53 AM 81.0 °F 86.7 °F 75.0 °F 82% 29.95 in 10.0 mi SSW 8.1 mph - N/A   Clear
2:53 AM 80.1 °F 85.1 °F 75.0 °F 85% 29.94 in 10.0 mi SSW 6.9 mph - N/A   Clear
3:53 AM 81.0 °F 86.7 °F 75.0 °F 82% 29.93 in 10.0 mi SSW 6.9 mph - N/A   Partly Cloudy
4:53 AM 81.0 °F 86.7 °F 75.0 °F 82% 29.94 in 10.0 mi SW 3.5 mph - N/A   Mostly Cloudy
5:53 AM 80.1 °F 85.4 °F 75.9 °F 87% 29.94 in 10.0 mi Calm Calm - N/A   Scattered Clouds
6:53 AM 80.1 °F 85.4 °F 75.9 °F 87% 29.95 in 10.0 mi WSW 3.5 mph - N/A   Mostly Cloudy
7:53 AM 81.0 °F 87.9 °F 77.0 °F 88% 29.96 in 10.0 mi Calm Calm - 0.00 in   Mostly Cloudy
8:26 AM 80.6 °F 87.1 °F 77.0 °F 89% 29.95 in 10.0 mi SW 4.6 mph - N/A   Mostly Cloudy
8:50 AM 82.4 °F 90.9 °F 77.0 °F 84% 29.95 in 10.0 mi SSW 3.5 mph - N/A   Mostly Cloudy
8:53 AM 82.9 °F 92.8 °F 78.1 °F 85% 29.95 in 10.0 mi Variable 3.5 mph - N/A   Scattered Clouds
9:31 AM 84.2 °F 94.1 °F 77.0 °F 79% 29.95 in 10.0 mi SW 6.9 mph - N/A   Mostly Cloudy
9:53 AM 84.0 °F 93.7 °F 77.0 °F 79% 29.95 in 10.0 mi West 4.6 mph - N/A   Mostly Cloudy
10:44 AM 87.8 °F 99.7 °F 77.0 °F 70% 29.94 in 10.0 mi SW 8.1 mph 17.3 mph N/A   Mostly Cloudy
10:53 AM 86.0 °F 96.0 °F 75.9 °F 72% 29.94 in 10.0 mi SW 8.1 mph - N/A   Mostly Cloudy
12:53 PM 91.0 °F 100.4 °F 73.9 °F 57% 29.93 in 10.0 mi SW 8.1 mph 16.1 mph N/A   Partly Cloudy
1:53 PM 91.9 °F 100.7 °F 73.0 °F 54% 29.91 in 10.0 mi SW 10.4 mph 18.4 mph N/A   Scattered Clouds
2:53 PM 91.0 °F 101.6 °F 75.0 °F 59% 29.90 in 10.0 mi SSW 10.4 mph 20.7 mph N/A   Scattered Clouds
3:53 PM 91.0 °F 100.4 °F 73.9 °F 57% 29.88 in 10.0 mi SW 10.4 mph 23.0 mph N/A   Scattered Clouds
4:53 PM 88.0 °F 95.6 °F 73.0 °F 61% 29.87 in 10.0 mi SSW 12.7 mph 19.6 mph N/A   Scattered Clouds
5:53 PM 84.9 °F 92.1 °F 73.9 °F 69% 29.87 in 10.0 mi South 12.7 mph 19.6 mph N/A   Clear
6:53 PM 87.1 °F 96.3 °F 75.0 °F 67% 29.87 in 10.0 mi SSW 6.9 mph - N/A   Clear
7:53 PM 84.0 °F 91.2 °F 73.9 °F 72% 29.89 in 10.0 mi SSW 4.6 mph - N/A   Partly Cloudy
8:53 PM 82.9 °F 90.2 °F 75.0 °F 77% 29.91 in 10.0 mi SSW 5.8 mph - N/A   Partly Cloudy
9:53 PM 81.0 °F 87.3 °F 75.9 °F 85% 29.91 in 10.0 mi North - - N/A   Partly Cloudy
10:53 PM 79.0 °F - 75.9 °F 90% 29.91 in 9.0 mi South 6.9 mph - N/A   Clear
11:53 PM 80.1 °F 85.4 °F 75.9 °F 87% 29.91 in 9.0 mi Calm Calm - N/A   Clear